Weather History for West Palm Beach, FL

Change the Weather History Date:

Saturday, January 11, 2014

  Actual Average Record
Temperature  
Mean Temperature 79 °F 65 °F  
Max Temperature 84 °F 74 °F 84 °F (2014)
Min Temperature 73 °F 57 °F 33 °F (2010)
Degree Days  
Heating Degree Days 0 3  
Month to date heating degree days 18 33  
Since 1 July heating degree days 22 104  
Cooling Degree Days 14 3  
Month to date cooling degree days 76 40  
Year to date cooling degree days 76 40  
Growing Degree Days 26 (Base 50)    
Moisture  
Dew Point 70 °F    
Average Humidity 80    
Maximum Humidity 90    
Minimum Humidity 69    
Precipitation  
Precipitation T in 0.10 in 2.30 in (1889)
Month to date precipitation 6.53 1.20  
Year to date precipitation 6.53 1.20  
Snow  
Snow 0.00 in - - ()
Month to date snowfall 0.0  
Since 1 July snowfall 0.0  
Snow Depth 0.00 in    
Sea Level Pressure  
Sea Level Pressure 30.05 in    
Wind  
Wind Speed 11 mph (South)    
Max Wind Speed 20 mph    
Max Gust Speed 25 mph    
Visibility 10 miles    
Events Rain    
T = Trace of Precipitation, MM = Missing Value Source: NWS Daily Summary

Daily Weather History Graph

Daily Weather History Graph

Search for Another Location

Airport:

Trip Planner

Search our weather history database for the weather conditions in past years. The results will help you decide how hot, cold, wet, or windy it might be!

Date:

Astronomy

Jan. 11, 2014 Rise Set
Actual Time 7:10 AM EST 5:46 PM EST
Civil Twilight 6:45 AM EST 6:11 PM EST
Nautical Twilight 6:16 AM EST 6:40 PM EST
Astronomical Twilight 5:48 AM EST 7:08 PM EST
Moon 2:25 PM EST (1/11) 3:18 AM EST (1/11)
Length of Visible Light 11h 26m
Length of Day
10h 35m
Waxing Gibbous, 83% of the Moon is Illuminated
Jan 11
Waxing Gibbous
Jan 15
Full
Jan 24
Last Quarter
Jan 30
New
Feb 6
First Quarter

Hourly Weather History & Observations

Time (EST) Temp. Heat Index Dew Point Humidity Pressure Visibility Wind Dir Wind Speed Gust Speed Precip Events Conditions
12:53 AM 75.6 °F - 72.1 °F 89% 30.09 in 10.0 mi SSE 5.8 mph - N/A   Scattered Clouds
1:53 AM 75.6 °F - 71.8 °F 88% 30.08 in 10.0 mi SE 8.1 mph - N/A   Mostly Cloudy
2:53 AM 75.6 °F - 71.8 °F 88% 30.07 in 10.0 mi SSE 9.2 mph - N/A   Mostly Cloudy
3:53 AM 75.6 °F - 72.1 °F 89% 30.07 in 10.0 mi SSE 10.4 mph - N/A   Scattered Clouds
4:53 AM 75.6 °F - 70.0 °F 83% 30.06 in 10.0 mi SSE 9.2 mph - 0.00 in   Scattered Clouds
5:53 AM 75.6 °F - 70.2 °F 83% 30.06 in 10.0 mi SSE 9.2 mph - N/A   Scattered Clouds
6:53 AM 76.1 °F - 70.2 °F 82% 30.08 in 10.0 mi SSE 11.5 mph - 0.00 in Rain Light Rain
7:53 AM 75.9 °F - 69.6 °F 81% 30.09 in 10.0 mi SSE 12.7 mph - 0.00 in   Mostly Cloudy
8:53 AM 76.6 °F - 70.3 °F 81% 30.10 in 10.0 mi SSE 9.2 mph - N/A   Scattered Clouds
9:53 AM 79.0 °F - 70.3 °F 75% 30.11 in 10.0 mi South 13.8 mph - N/A   Mostly Cloudy
10:19 AM 78.8 °F - 69.8 °F 74% 30.11 in 7.0 mi SSE 16.1 mph 24.2 mph 0.00 in Rain Light Rain
10:53 AM 80.1 °F 83.7 °F 71.6 °F 75% 30.10 in 10.0 mi SSE 19.6 mph 25.3 mph 0.00 in   Mostly Cloudy
11:53 AM 80.1 °F 83.7 °F 71.6 °F 75% 30.07 in 10.0 mi South 15.0 mph - N/A   Mostly Cloudy
12:36 PM 80.6 °F 84.6 °F 71.6 °F 74% 30.05 in 10.0 mi South 12.7 mph - N/A   Mostly Cloudy
12:53 PM 80.1 °F 83.4 °F 70.7 °F 73% 30.04 in 10.0 mi South 11.5 mph - N/A   Mostly Cloudy
1:53 PM 82.9 °F 87.5 °F 71.1 °F 67% 30.00 in 10.0 mi South 12.7 mph 21.9 mph N/A   Mostly Cloudy
2:53 PM 81.0 °F 84.4 °F 70.0 °F 69% 29.98 in 10.0 mi South 18.4 mph 23.0 mph N/A   Mostly Cloudy
3:53 PM 82.0 °F 86.3 °F 71.1 °F 69% 29.97 in 10.0 mi South 12.7 mph 21.9 mph N/A   Scattered Clouds
4:53 PM 80.1 °F 83.2 °F 70.0 °F 71% 29.96 in 10.0 mi South 12.7 mph - N/A   Scattered Clouds
5:53 PM 79.0 °F - 70.0 °F 74% 29.98 in 10.0 mi South 10.4 mph - N/A   Mostly Cloudy
6:53 PM 77.0 °F - 69.1 °F 76% 30.00 in 10.0 mi South 5.8 mph - N/A   Scattered Clouds
7:53 PM 75.9 °F - 68.0 °F 76% 30.03 in 10.0 mi SSW 9.2 mph - N/A   Scattered Clouds
8:53 PM 75.0 °F - 68.0 °F 79% 30.04 in 10.0 mi SSW 9.2 mph - N/A   Partly Cloudy
9:53 PM 73.9 °F - 68.0 °F 82% 30.05 in 10.0 mi SSW 9.2 mph - N/A   Scattered Clouds
10:53 PM 73.0 °F - 69.1 °F 87% 30.04 in 10.0 mi SSW 6.9 mph - N/A   Mostly Cloudy
11:53 PM 73.0 °F - 69.1 °F 87% 30.05 in 10.0 mi WSW 6.9 mph - N/A   Mostly Cloudy